#timestamp,LO_Frequency,Hit,StdDev 
1508072415.9,286047004.1,N
1508072435.7,286047004.3,N
1508072455.5,286047003.6,N
1508072475.4,286047004.6,N
1508072495.2,286047007.6,N
1508072515.1,286047007.0,N
1508072516.0,286047007.0,N
1508072535.8,286047008.7,N
1508072555.6,286047008.6,N
1508072575.5,286047006.7,N
1508072595.3,286047007.4,N
1508072615.1,286047009.2,N
1508072635.9,286047009.9,N
1508072655.7,286047008.9,N
1508072675.6,286047008.9,N
1508072695.4,286047010.6,N
1508072715.2,286047008.5,N
1508072735.1,286047007.7,N
1508072736.0,286047007.7,N
1508072755.8,286047006.3,N
1508072775.7,286047006.3,N
1508072795.5,286047004.8,N
1508072815.3,286047001.3,N
1508072835.2,286047004.3,N
1508072855.0,286047004.0,N
1508072855.9,286047004.0,N
1508072875.8,286047003.9,N
1508072895.6,286047005.4,N
1508072915.4,286047005.2,N
1508072935.3,286047003.6,N
1508072955.1,286047001.3,N
1508072975.8,286047001.7,N
1508072995.7,286047000.5,N
1508073015.5,286046998.5,N
1508073035.4,286046998.4,N
1508073055.2,286046995.2,N
1508073075.0,286046995.6,N
1508073075.9,286046995.6,N
1508073095.8,286047000.7,N
1508073115.6,286047000.5,N
1508073135.5,286046999.0,N
1508073155.3,286046996.9,N
1508073175.1,286046999.1,N
1508073195.9,286047001.2,N
1508073215.7,286047000.9,N
1508073235.6,286046998.3,N
1508073255.4,286046999.1,N
1508073275.2,286046997.9,N
1508073295.1,286046997.4,N
1508073296.0,286046997.4,N
1508073315.8,286046997.0,N
1508073335.7,286046999.5,N
1508073355.5,286046996.7,N
1508073375.3,286046998.4,N
1508073395.2,286046998.1,N
1508073415.0,286047000.7,N
1508073415.9,286047000.7,N
1508073435.8,286047000.7,N
1508073455.6,286047000.8,N
1508073475.4,286047000.4,N
1508073495.3,286046999.9,N
1508073515.1,286047000.4,N
1508073535.8,286046998.7,N
1508073555.7,286046999.0,N
1508073575.5,286046998.2,N
1508073595.4,286046998.8,N
1508073615.2,286047000.2,N
1508073635.0,286047000.8,N
1508073635.9,286047000.8,N
1508073655.8,286046998.6,N
1508073675.6,286047002.7,N
1508073695.5,286047000.3,N
1508073715.3,286047000.0,N
1508073735.1,286046999.9,N
1508073755.9,286047000.4,N
1508073775.7,286046999.8,N
1508073795.6,286047003.4,N
1508073815.4,286047003.1,N
1508073835.2,286047004.3,N
1508073855.1,286047001.3,N
1508073856.0,286047001.3,N
1508073875.8,286047001.9,N
1508073895.7,286047004.3,N
1508073915.5,286047002.0,N
1508073935.3,286047004.0,N
1508073955.2,286047003.6,N
1508073975.0,286047003.5,N
1508073975.9,286047003.5,N
1508073995.8,286047004.3,N
1508074015.6,286047002.4,N
1508074035.4,286047002.0,N
1508074055.3,286047001.9,N
1508074075.1,286047002.5,N
1508074095.8,286047002.7,N
1508074115.7,286046999.8,N
1508074135.5,286046999.9,N
1508074155.4,286047002.6,N
1508074175.2,286047002.6,N
1508074195.0,286047002.7,N
1508074195.9,286047002.7,N
1508074215.8,286046998.6,N
1508074235.6,286047000.0,N
1508074255.5,286047002.2,N
1508074275.3,286047002.4,N
1508074295.1,286046999.9,N
1508074315.9,286046999.9,N
1508074335.7,286046999.8,N
1508074355.6,286047001.1,N
1508074375.4,286047000.5,N
1508074395.2,286047001.0,N
1508074415.1,286047000.2,N
1508074416.0,286047000.2,N
1508074435.8,286047000.3,N
1508074455.6,286046998.1,N
1508074475.5,286046998.9,N
1508074495.3,286046997.2,N
1508074515.2,286046996.8,N
1508074535.0,286046999.0,N
1508074535.9,286046999.0,N
1508074555.7,286046999.3,N
1508074575.6,286047000.3,N
1508074595.4,286047000.5,N
1508074615.3,286047000.3,N
1508074635.1,286046999.3,N
1508074655.8,286047002.2,N
1508074675.7,286047002.3,N
1508074695.5,286047000.3,N
1508074715.4,286047000.0,N
1508074735.2,286047000.5,N
1508074755.0,286047001.2,N
1508074755.9,286047001.2,N
1508074775.8,286046996.9,N
1508074795.6,286046996.7,N
1508074815.5,286046996.8,N
1508074835.3,286046997.2,N
1508074855.1,286046997.1,N
1508074875.9,286046998.0,N
1508074895.7,286046996.7,N
1508074915.5,286046997.9,N
1508074935.4,286046997.6,N
1508074955.2,286046995.0,N
1508074975.1,286046995.3,N
1508074976.0,286046995.3,N
1508074995.8,286046997.0,N
1508075015.6,286046998.8,N
1508075065.5,286046996.9,E
1508075075.4,286046998.7,N
1508075095.3,286047001.9,P
1508075115.1,286047002.1,N
1508075135.8,286047001.9,N
1508075155.7,286046999.7,N
1508075175.5,286046999.9,N
1508075195.4,286047000.7,N
1508075215.2,286047000.0,N
1508075235.0,286047000.5,N
1508075235.9,286047000.5,N
1508075255.8,286046998.5,N
1508075275.6,286047000.8,N
1508075295.5,286046998.2,N
1508075315.3,286047001.0,N
1508075335.1,286047000.9,N
1508075355.9,286047001.2,N
1508075375.7,286046996.9,N
1508075395.6,286047011.9,Y
1508075415.4,286046999.2,P
1508075435.2,286046996.8,P
1508075455.1,286046996.5,N
1508075456.0,286046996.5,N
1508075475.8,286046997.9,N
1508075495.7,286046997.1,N
1508075515.5,286046997.6,N
1508075535.3,286046996.5,N
1508075555.2,286046997.3,N
1508075575.0,286046997.5,N
1508075575.9,286046997.5,N
1508075595.8,286046996.6,Y
1508075615.6,286047001.1,P
1508075635.4,286046998.6,N
1508075655.3,286046998.7,N
1508075675.1,286046998.9,N
1508075695.8,286046999.2,N
1508075715.7,286046998.7,N
1508075735.5,286046998.7,N
1508075755.4,286046996.6,Y
1508075775.2,286046999.6,P
1508075795.0,286046999.1,N
1508075795.9,286046999.1,P
1508075815.8,286046996.8,Y
1508075835.6,286046999.5,P
1508075855.5,286046998.9,P
1508075875.3,286046999.5,N
1508075895.1,286046999.3,N
1508075915.9,286046998.3,Y
1508075935.7,286046999.4,P
1508075955.6,286046998.8,P
1508075975.4,286046998.6,P
1508075995.3,286046998.9,Y
